Tracking 33068 objects as of 24-Jan-2026
HD Live streaming from Space Station
objects crossing your sky now

STARLINK-31232

Track STARLINK-31232 now!
10-day predictions
STARLINK-31232 is classified as:


NORAD ID: 58831
Int'l Code: 2024-017F
Perigee: 482.1 km
Apogee: 482.6 km
Inclination: 53.2 °
Period: 94.1 minutes
Semi major axis: 6853 km
RCS: Unknown
Launch date: January 24, 2024
Source: United States (US)
Launch site: AIR FORCE WESTERN TEST RANGE (AFWTR)
Your satellite tracking list
Your tracking list is empty




NASA's NSSDC Master Catalog

Two Line Element Set (TLE):
1 58831U 24017F   26024.23699417  .00001561  00000-0  64814-4 0  9994
2 58831  53.1597  50.5619 0000343  81.3703 278.7337 15.30195049113251
Source of the keplerian elements: AFSPC